[[{"header":{"parameterUnit":"m.s-1","parameterCategory":2,"la1":30.2991,"la2":30.254,"lo1":-89.0895,"lo2":-89.0444,"dy":0.0017,"dx":0.0017,"nx":28,"ny":28,"refTime":"2023-09-09T03:00:00:Z","depth":"0","parameterNumber":2,"parameterNumberName":"U-component_of_CURRENTS"},"data":[0,0,0,0,0,0,0,0,0,0,0,0,0,0,0,0,0,0,0,0,0,0,0,0,0,0,0,0,0,0,0,0,0,0,0,0,0,0,0,0,0,0,0,0,0,0,0,0,0,0,0,0,0,0,0,0,0,0,-0.2949,-0.295,0,-0.3022,-0.3023,-0.3023,-0.3017,-0.3016,-0.3015,-0.3015,-0.2977,-0.2976,-0.2976,0,0,0,0,0,0,0,0,0,0,0,0,0,-0.2813,-0.2815,-0.2949,-0.295,-0.2952,-0.3022,-0.3023,-0.3023,-0.3017,-0.3016,-0.3015,-0.3014,-0.2977,-0.2976,-0.2976,0,0,0,0,0,0,0,0,0,0,0,0,0,-0.2873,-0.2815,-0.2949,-0.296,-0.2962,-0.3022,-0.3023,-0.3024,-0.3017,-0.3016,-0.3015,-0.3014,-0.2977,-0.2976,-0.2976,-0.2994,0,0,-0.2974,-0.2974,0,0,0,0,0,0,0,0,-0.287,-0.2878,-0.2957,-0.296,-0.2962,-0.3013,-0.2961,-0.301,-0.3017,-0.2992,-0.3015,-0.3013,-0.2982,-0.2981,-0.2993,-0.2992,-0.2991,-0.2974,-0.2974,-0.2974,-0.2973,0,0,0,0,0,0,0,-0.2866,-0.2875,-0.2974,-0.2959,-0.2962,-0.2965,-0.2972,-0.297,-0.2987,-0.2994,-0.2995,-0.301,-0.2982,-0.2993,-0.2991,-0.299,-0.2974,-0.2974,-0.2973,-0.2973,-0.2966,-0.2966,0,0,0,0,0,0,-0.2867,-0.2871,-0.2971,-0.2976,-0.2917,-0.2969,-0.2976,-0.2994,-0.2989,-0.299,-0.3011,-0.301,-0.2995,-0.2992,-0.299,-0.2959,-0.2974,-0.2973,-0.2973,-0.2966,-0.2966,-0.2966,0,0,0,0,0,0,-0.2863,-0.2875,-0.2968,-0.2928,-0.2941,-0.2973,-0.2993,-0.2996,-0.3004,-0.3004,-0.3001,-0.3015,-0.2994,-0.2991,-0.2984,-0.2959,-0.2973,-0.2972,-0.2966,-0.2966,-0.2966,-0.293,0,0,0,0,0,0,-0.2859,-0.2873,-0.2879,-0.2929,-0.2943,-0.2987,-0.2994,-0.2999,-0.3018,-0.3017,-0.3007,-0.3003,-0.2993,-0.2985,-0.2984,-0.2958,-0.2972,-0.2965,-0.2966,-0.2966,-0.2931,-0.2929,-0.2927,0,0,0,0,0,-0.2854,-0.286,-0.2879,-0.2891,-0.2953,-0.2987,-0.2993,-0.3009,-0.3019,-0.3014,-0.3017,-0.3003,-0.2985,-0.2985,-0.2983,-0.2957,-0.2965,-0.2966,-0.2966,-0.2932,-0.2929,-0.2927,0,0,0,0,0,0,-0.2795,-0.2862,-0.2883,-0.2908,-0.2941,-0.2987,-0.2987,-0.3012,-0.3016,-0.3009,-0.301,-0.3006,-0.2992,-0.2989,-0.299,-0.2959,-0.2971,-0.2971,-0.2945,-0.2943,-0.2941,-0.2921,-0.2972,0,0,0,0,0,-0.2792,-0.2812,-0.2875,-0.2888,-0.2906,-0.2951,-0.2967,-0.2984,-0.3002,-0.3003,-0.3002,-0.2998,-0.2996,-0.298,-0.298,-0.2963,-0.2936,-0.2946,-0.2944,-0.2942,-0.2927,-0.2871,-0.2862,-0.2967,-0.2967,-0.2967,0,0,-0.2774,-0.2811,-0.2823,-0.2877,-0.2903,-0.292,-0.2955,-0.2975,-0.2979,-0.2997,-0.2987,-0.2997,-0.2996,-0.2976,-0.2968,-0.2964,-0.29,-0.2942,-0.294,-0.2926,-0.287,-0.286,-0.285,-0.2967,-0.2967,-0.2967,0,0,-0.2735,-0.2781,-0.2781,-0.2814,-0.2858,-0.289,-0.2898,-0.2945,-0.2949,-0.2958,-0.2971,-0.2958,-0.2964,-0.2942,-0.2938,-0.2925,-0.2902,-0.2938,-0.2893,-0.2839,-0.2829,-0.282,-0.2773,-0.276,-0.2922,-0.2922,-0.2922,0,-0.2702,-0.2722,-0.2782,-0.2792,-0.2809,-0.2875,-0.2873,-0.2899,-0.2934,-0.2926,-0.2942,-0.2938,-0.2936,-0.2901,-0.2902,-0.2913,-0.2893,-0.2898,-0.2833,-0.2823,-0.2814,-0.2769,-0.2754,-0.2921,-0.2921,-0.2921,-0.2921,0,-0.2669,-0.2686,-0.2686,-0.2723,-0.2751,-0.2758,-0.2816,-0.2829,-0.2853,-0.287,-0.2854,-0.2862,-0.2845,-0.2854,-0.2876,-0.2821,-0.2831,-0.2845,-0.2831,-0.2801,-0.2756,-0.2742,-0.2918,-0.2919,-0.2919,-0.292,0,0,-0.257,-0.2645,-0.2641,-0.2649,-0.2714,-0.2729,-0.2744,-0.2761,-0.2755,-0.2778,-0.2749,-0.2754,-0.2762,-0.2758,-0.2778,-0.2743,-0.2671,-0.2772,-0.277,-0.2711,-0.256,-0.2509,-0.2489,-0.268,-0.2677,-0.2675,-0.2553,0,-0.2508,-0.251,-0.2568,-0.2563,-0.2569,-0.264,-0.2647,-0.2676,-0.2698,-0.2691,-0.2694,-0.2682,-0.2725,-0.2717,-0.2686,-0.2694,-0.2634,-0.2703,-0.2611,-0.2607,-0.2553,-0.247,-0.2385,-0.2264,-0.2539,-0.2537,-0.2535,0,-0.244,-0.2453,-0.2443,-0.2485,-0.2492,-0.2502,-0.2521,-0.2539,-0.2561,-0.2574,-0.2564,-0.2589,-0.2557,-0.2596,-0.2535,-0.2586,-0.2557,-0.2553,-0.2548,-0.2499,-0.2529,-0.2341,-0.2228,-0.2218,-0.2513,-0.2515,-0.2517,0,-0.2327,-0.2357,-0.2343,-0.2361,-0.2425,-0.242,-0.2445,-0.2482,-0.249,-0.2493,-0.2491,-0.2473,-0.2458,-0.2429,-0.2445,-0.248,-0.2379,-0.2412,-0.2323,-0.232,-0.2224,-0.2217,-0.2072,-0.2315,-0.2316,-0.2316,-0.2316,0,-0.2236,-0.2219,-0.2289,-0.2281,-0.2257,-0.2332,-0.2308,-0.234,-0.2371,-0.2359,-0.2413,-0.2392,-0.2419,-0.2392,-0.2393,-0.2313,-0.2317,-0.2281,-0.2267,-0.2212,-0.2205,-0.2176,-0.2214,-0.2311,-0.2312,-0.2313,-0.2314,0,-0.2116,-0.2165,-0.215,-0.2197,-0.2207,-0.2188,-0.2236,-0.2226,-0.2275,-0.226,-0.2259,-0.2307,-0.2274,-0.2293,-0.2244,-0.2226,-0.2125,-0.2134,-0.2076,-0.2057,-0.1957,-0.1997,-0.1836,-0.1782,-0.1987,-0.1984,-0.1983,0,-0.2054,-0.2037,-0.2072,-0.2063,-0.208,-0.2079,-0.2082,-0.2154,-0.2157,-0.2201,-0.2179,-0.2171,-0.2146,-0.2075,-0.2042,-0.198,-0.2012,-0.1862,-0.1893,-0.1898,-0.1933,-0.1971,-0.1941,-0.1756,-0.1753,-0.175,-0.1747,0,-0.1927,-0.1946,-0.1944,-0.1928,-0.1925,-0.1931,-0.1944,-0.1941,-0.2019,-0.2025,-0.2022,-0.2009,-0.1962,-0.1876,-0.182,-0.1781,-0.1816,-0.1797,-0.18,-0.1719,-0.1749,-0.1709,-0.1914,-0.1721,-0.1724,-0.1725,-0.1727,-0.1728,-0.1822,-0.1792,-0.1795,-0.1774,-0.178,-0.1768,-0.1724,-0.1767,-0.1762,-0.1752,-0.1823,-0.1786,-0.1767,-0.1674,-0.1627,-0.1533,-0.1599,-0.1502,-0.1543,-0.1575,-0.1531,-0.168,-0.1483,-0.1484,-0.1485,-0.1486,-0.1487,0,-0.1675,-0.1662,-0.1639,-0.161,-0.1572,-0.1624,-0.1618,-0.1569,-0.1525,-0.157,-0.1554,-0.156,-0.1469,-0.1467,-0.139,-0.1317,-0.1295,-0.1295,-0.1329,-0.1304,-0.1409,-0.1408,-0.1189,-0.1189,-0.1189,-0.1189,-0.1189,-0.1189,-0.1591,-0.1524,-0.1522,-0.1414,-0.1397,-0.1305,-0.1278,-0.1242,-0.1251,-0.1224,-0.1256,-0.1325,-0.1352,-0.143,-0.1323,-0.1244,-0.1225,-0.1172,-0.1205,-0.1308,-0.1331,-0.1354,-0.1359,-0.1132,-0.1133,-0.1044,-0.1044,-0.1043]},{"header":{"parameterUnit":"m.s-1","parameterCategory":2,"la1":30.2991,"la2":30.254,"lo1":-89.0895,"lo2":-89.0444,"dy":0.0017,"dx":0.0017,"nx":28,"ny":28,"refTime":"2023-09-09T03:00:00:Z","depth":"0","parameterNumber":3,"parameterNumberName":"V-component_of_CURRENTS"},"data":[0,0,0,0,0,0,0,0,0,0,0,0,0,0,0,0,0,0,0,0,0,0,0,0,0,0,0,0,0,0,0,0,0,0,0,0,0,0,0,0,0,0,0,0,0,0,0,0,0,0,0,0,0,0,0,0,0,0,-0.0516,-0.0514,0,-0.0383,-0.0382,-0.038,-0.0302,-0.0302,-0.0302,-0.0302,-0.0123,-0.0119,-0.0114,0,0,0,0,0,0,0,0,0,0,0,0,0,-0.062,-0.0619,-0.0516,-0.0514,-0.0513,-0.0384,-0.0382,-0.038,-0.0302,-0.0302,-0.0302,-0.0302,-0.0125,-0.0119,-0.0114,0,0,0,0,0,0,0,0,0,0,0,0,0,-0.0539,-0.0618,-0.0516,-0.046,-0.0454,-0.0384,-0.0382,-0.0379,-0.0302,-0.0302,-0.0302,-0.0301,-0.0126,-0.012,-0.0113,-0.0076,0,0,-0.0092,-0.0089,0,0,0,0,0,0,0,0,-0.0543,-0.0535,-0.047,-0.0464,-0.0456,-0.036,-0.0353,-0.0276,-0.0302,-0.0358,-0.0302,-0.0301,-0.0199,-0.0187,-0.016,-0.0067,-0.006,-0.0091,-0.0087,-0.0084,-0.0082,0,0,0,0,0,0,0,-0.0549,-0.0539,-0.0462,-0.0468,-0.046,-0.0413,-0.0402,-0.0337,-0.028,-0.0353,-0.0348,-0.0335,-0.0195,-0.0167,-0.0156,-0.0057,-0.0091,-0.0085,-0.0081,-0.0078,0.0061,0.0061,0,0,0,0,0,0,-0.0573,-0.0545,-0.0466,-0.0458,-0.0502,-0.0412,-0.0399,-0.039,-0.0281,-0.0265,-0.0336,-0.0332,-0.0179,-0.0164,-0.0149,-0.0125,-0.0084,-0.0078,-0.0074,0.0062,0.0061,0.0061,0,0,0,0,0,0,-0.0576,-0.0568,-0.0471,-0.05,-0.0484,-0.0411,-0.0401,-0.0388,-0.0361,-0.0269,-0.0252,-0.0324,-0.0178,-0.0159,-0.01,-0.0116,-0.0075,-0.0068,0.0062,0.0062,0.0061,-0.0059,0,0,0,0,0,0,-0.058,-0.057,-0.0573,-0.0501,-0.0484,-0.044,-0.0401,-0.0385,-0.0355,-0.0349,-0.0253,-0.0236,-0.0177,-0.0111,-0.0093,-0.0106,-0.0063,0.0063,0.0062,0.0061,-0.0055,-0.0064,-0.0072,0,0,0,0,0,-0.0584,-0.059,-0.0574,-0.0564,-0.049,-0.0441,-0.0427,-0.0373,-0.0355,-0.0347,-0.0286,-0.0239,-0.0104,-0.0105,-0.0085,-0.0096,0.0063,0.0062,0.0061,-0.0051,-0.0062,-0.0071,0,0,0,0,0,0,-0.0633,-0.058,-0.0562,-0.0551,-0.0506,-0.0428,-0.0417,-0.0381,-0.0325,-0.0322,-0.0236,-0.0215,-0.0173,-0.0115,-0.0119,-0.0058,-0.0015,-0.0012,-0.0108,-0.0117,-0.0126,-0.0142,-0.0057,0,0,0,0,0,-0.0649,-0.0641,-0.0581,-0.0573,-0.0556,-0.049,-0.0464,-0.0429,-0.037,-0.0345,-0.0278,-0.0212,-0.0159,-0.0125,-0.0066,-0.0025,0.0028,-0.002,-0.0029,-0.0036,-0.0036,0.0024,0.0021,0.0058,0.0058,0.0058,0,0,-0.0669,-0.0636,-0.0633,-0.0584,-0.0546,-0.0527,-0.0474,-0.0444,-0.0427,-0.0334,-0.0294,-0.0237,-0.0156,-0.0118,-0.0094,-0.0071,-0.0022,-0.0038,-0.0045,-0.004,0.0023,0.0019,0.0016,0.0057,0.0057,0.0057,0,0,-0.0699,-0.0676,-0.0678,-0.0647,-0.0599,-0.056,-0.0558,-0.0488,-0.0459,-0.0413,-0.0353,-0.0309,-0.0213,-0.0167,-0.0131,-0.0147,-0.0072,-0.0129,-0.0179,-0.0123,-0.0125,-0.0127,-0.0081,-0.0077,-0.013,-0.013,-0.0131,0,-0.0723,-0.0713,-0.0671,-0.0662,-0.0642,-0.0583,-0.0578,-0.0543,-0.0463,-0.0438,-0.0417,-0.0296,-0.024,-0.0192,-0.0207,-0.0169,-0.0121,-0.0152,-0.0135,-0.0135,-0.0135,-0.0087,-0.0081,-0.0136,-0.0136,-0.0135,-0.0134,0,-0.0748,-0.0742,-0.0741,-0.0715,-0.0692,-0.0677,-0.0628,-0.0604,-0.0565,-0.0518,-0.0463,-0.0387,-0.0311,-0.0299,-0.0258,-0.0231,-0.0194,-0.0159,-0.0116,-0.0146,-0.0093,-0.0086,-0.0145,-0.0143,-0.0141,-0.0139,0,0,-0.0785,-0.0765,-0.0762,-0.076,-0.0717,-0.0699,-0.0687,-0.0643,-0.0626,-0.0565,-0.0529,-0.0467,-0.0419,-0.0375,-0.0319,-0.0281,-0.0258,-0.0229,-0.0223,-0.0195,-0.0134,-0.0088,-0.0075,-0.0216,-0.0215,-0.0214,-0.0104,0,-0.0811,-0.0821,-0.0795,-0.08,-0.0801,-0.0753,-0.0742,-0.0701,-0.0653,-0.0606,-0.0539,-0.0482,-0.0448,-0.0415,-0.0376,-0.0275,-0.024,-0.0291,-0.0097,-0.0091,-0.0056,-0.0065,-0.0034,0.0069,-0.0096,-0.0095,-0.0094,0,-0.0833,-0.0836,-0.0855,-0.0841,-0.0835,-0.0831,-0.0796,-0.0776,-0.0708,-0.0668,-0.0607,-0.0536,-0.0472,-0.044,-0.03,-0.033,-0.0249,-0.0181,-0.0173,-0.008,-0.0031,0.0079,0.009,0.022,-0.0081,-0.0082,-0.0083,0,-0.0874,-0.0871,-0.089,-0.0885,-0.0866,-0.0862,-0.0847,-0.0795,-0.0774,-0.0701,-0.0669,-0.0572,-0.0509,-0.0405,-0.0267,-0.0276,-0.0107,-0.0093,0.0022,0.0026,0.0118,0.0128,0.0271,-0.0002,-0.0003,-0.0003,-0.0003,0,-0.0904,-0.0914,-0.0913,-0.0922,-0.0937,-0.0907,-0.0905,-0.0872,-0.0821,-0.0788,-0.0703,-0.0644,-0.0496,-0.0376,-0.0268,-0.0092,-0.0099,0.0016,0.0061,0.0076,0.0081,0.0252,0.0295,0.0001,0.0,-0.0,-0.0001,0,-0.0941,-0.0942,-0.0963,-0.096,-0.0959,-0.0971,-0.0952,-0.0944,-0.0891,-0.0844,-0.082,-0.0685,-0.0521,-0.0369,-0.0176,-0.0079,0.0161,0.0134,0.0134,0.0177,0.0392,0.0426,0.0621,0.0696,0.0275,0.0277,0.0279,0,-0.0961,-0.0978,-0.0997,-0.1014,-0.1013,-0.1024,-0.1027,-0.0987,-0.0967,-0.0858,-0.083,-0.0668,-0.0535,-0.0242,-0.0037,0.0173,0.0258,0.0319,0.0302,0.0414,0.0486,0.0508,0.0558,0.0372,0.0375,0.0376,0.0378,0,-0.0992,-0.1001,-0.1022,-0.1058,-0.1074,-0.1091,-0.1083,-0.1075,-0.1008,-0.0948,-0.0822,-0.0708,-0.0418,-0.0145,0.0127,0.0248,0.0418,0.0362,0.0492,0.0584,0.0608,0.0697,0.0279,0.0394,0.0392,0.0391,0.039,0.0389,-0.1006,-0.1034,-0.106,-0.1091,-0.1118,-0.1132,-0.1125,-0.1095,-0.1046,-0.0919,-0.0814,-0.0616,-0.0243,0.0154,0.0306,0.0619,0.0571,0.0702,0.0737,0.0751,0.0819,0.0426,0.0582,0.0582,0.0581,0.0581,0.058,0,-0.1011,-0.1044,-0.1083,-0.1118,-0.1147,-0.1152,-0.1139,-0.1103,-0.1024,-0.0895,-0.0749,-0.0348,0.0032,0.0367,0.0805,0.0981,0.1013,0.106,0.1102,0.1136,0.0813,0.0813,0.1011,0.1011,0.1011,0.1011,0.1011,0.101,-0.1012,-0.1052,-0.1076,-0.1124,-0.1147,-0.1146,-0.1128,-0.1062,-0.096,-0.0719,-0.0498,-0.0328,0.0146,0.0871,0.1282,0.1315,0.1458,0.1449,0.1523,0.1298,0.1267,0.1237,0.125,0.1536,0.1537,0.1839,0.1842,0.1844]}],[{"header":{"parameterUnit":"m.s-1","parameterCategory":2,"la1":30.2991,"la2":30.254,"lo1":-89.0895,"lo2":-89.0444,"dy":0.0017,"dx":0.0017,"nx":28,"ny":28,"refTime":"2023-09-09T03:00:00:Z","depth":"2","parameterNumber":2,"parameterNumberName":"U-component_of_CURRENTS"},"data":[0,0,0,0,0,0,0,0,0,0,0,0,0,0,0,0,0,0,0,0,0,0,0,0,0,0,0,0,0,0,0,0,0,0,0,0,0,0,0,0,0,0,0,0,0,0,0,0,0,0,0,0,0,0,0,0,0,0,-0.2446,-0.2447,0,-0.244,-0.2439,-0.2438,-0.2423,-0.2423,-0.2424,-0.2424,-0.2483,-0.2484,-0.2485,0,0,0,0,0,0,0,0,0,0,0,0,0,-0.2318,-0.232,-0.2446,-0.2447,-0.2448,-0.244,-0.2439,-0.2438,-0.2423,-0.2423,-0.2424,-0.2425,-0.2483,-0.2484,-0.2485,0,0,0,0,0,0,0,0,0,0,0,0,0,-0.234,-0.2321,-0.2446,-0.2446,-0.2447,-0.244,-0.2439,-0.2437,-0.2422,-0.2423,-0.2424,-0.2425,-0.2482,-0.2484,-0.2485,-0.2477,0,0,-0.249,-0.2491,0,0,0,0,0,0,0,0,-0.2339,-0.2343,-0.2446,-0.2447,-0.2447,-0.2442,-0.2416,-0.2457,-0.2422,-0.2421,-0.2424,-0.2426,-0.2481,-0.2483,-0.2464,-0.2479,-0.2482,-0.249,-0.2491,-0.2492,-0.2492,0,0,0,0,0,0,0,-0.2337,-0.2343,-0.2433,-0.2447,-0.2448,-0.2405,-0.2409,-0.2422,-0.244,-0.2421,-0.2423,-0.2438,-0.2481,-0.2463,-0.2466,-0.2483,-0.249,-0.2491,-0.2492,-0.2493,-0.2518,-0.2518,0,0,0,0,0,0,-0.2364,-0.2342,-0.2434,-0.2434,-0.2405,-0.2407,-0.2411,-0.2434,-0.2438,-0.2442,-0.2437,-0.2437,-0.246,-0.2464,-0.2468,-0.2488,-0.2492,-0.2493,-0.2494,-0.2518,-0.2518,-0.2518,0,0,0,0,0,0,-0.2362,-0.2373,-0.2434,-0.2395,-0.2401,-0.2411,-0.2435,-0.2434,-0.2434,-0.2451,-0.2454,-0.2442,-0.2461,-0.2466,-0.2489,-0.249,-0.2494,-0.2495,-0.2518,-0.2518,-0.2518,-0.251,0,0,0,0,0,0,-0.2358,-0.2372,-0.238,-0.2398,-0.2405,-0.2428,-0.2435,-0.2434,-0.2446,-0.2446,-0.2456,-0.2461,-0.2462,-0.2486,-0.249,-0.2492,-0.2496,-0.2519,-0.2518,-0.2518,-0.251,-0.2509,-0.2508,0,0,0,0,0,-0.2353,-0.2358,-0.238,-0.2391,-0.2422,-0.2428,-0.2426,-0.2428,-0.2445,-0.2432,-0.2451,-0.2462,-0.2486,-0.2488,-0.2492,-0.2494,-0.2519,-0.2518,-0.2518,-0.2511,-0.251,-0.2508,0,0,0,0,0,0,-0.2308,-0.2359,-0.2383,-0.2405,-0.2421,-0.243,-0.2417,-0.2437,-0.2437,-0.2441,-0.2463,-0.2468,-0.2485,-0.2492,-0.2493,-0.2499,-0.2503,-0.2503,-0.2496,-0.2495,-0.2493,-0.2488,-0.2498,0,0,0,0,0,-0.2308,-0.2324,-0.2366,-0.2384,-0.2391,-0.241,-0.2412,-0.2422,-0.2436,-0.2436,-0.2463,-0.2477,-0.2481,-0.2492,-0.2496,-0.2506,-0.2487,-0.2508,-0.2507,-0.2507,-0.2504,-0.2469,-0.2464,-0.2516,-0.2516,-0.2516,0,0,-0.2297,-0.2328,-0.2338,-0.2375,-0.2382,-0.2393,-0.241,-0.2414,-0.2425,-0.2445,-0.2467,-0.2479,-0.2483,-0.2486,-0.2494,-0.2497,-0.248,-0.2506,-0.2505,-0.2503,-0.2467,-0.2462,-0.2458,-0.2516,-0.2516,-0.2516,0,0,-0.228,-0.2311,-0.2315,-0.2333,-0.2361,-0.2372,-0.2385,-0.2412,-0.2417,-0.2438,-0.2454,-0.2467,-0.2489,-0.2486,-0.2486,-0.2483,-0.2475,-0.2492,-0.2486,-0.2451,-0.2447,-0.2442,-0.2402,-0.2395,-0.2493,-0.2493,-0.2493,0,-0.2261,-0.2287,-0.2312,-0.2326,-0.234,-0.2373,-0.2379,-0.2386,-0.2424,-0.243,-0.2444,-0.2465,-0.2479,-0.2473,-0.2474,-0.248,-0.246,-0.2492,-0.2449,-0.2444,-0.244,-0.24,-0.2392,-0.2492,-0.2492,-0.2493,-0.2493,0,-0.2254,-0.2274,-0.2274,-0.231,-0.2323,-0.2327,-0.2362,-0.2377,-0.2401,-0.2418,-0.2426,-0.2436,-0.2445,-0.2455,-0.2467,-0.245,-0.2445,-0.245,-0.2451,-0.2434,-0.2394,-0.2385,-0.2492,-0.2492,-0.2492,-0.2492,0,0,-0.2202,-0.2256,-0.2255,-0.2268,-0.2313,-0.2318,-0.2341,-0.2357,-0.2366,-0.2393,-0.2394,-0.2408,-0.242,-0.2421,-0.2437,-0.2422,-0.2379,-0.2431,-0.243,-0.2389,-0.2297,-0.2239,-0.2223,-0.2379,-0.2378,-0.2377,-0.2278,0,-0.218,-0.2196,-0.2235,-0.2245,-0.225,-0.2294,-0.2311,-0.2336,-0.2354,-0.2366,-0.2369,-0.2374,-0.2403,-0.2405,-0.2394,-0.2391,-0.2357,-0.2405,-0.2322,-0.2319,-0.2267,-0.2212,-0.2074,-0.197,-0.2269,-0.2268,-0.2267,0,-0.2148,-0.2164,-0.2171,-0.2208,-0.2214,-0.223,-0.2251,-0.2272,-0.2299,-0.2313,-0.2321,-0.2336,-0.2332,-0.2349,-0.231,-0.2342,-0.2314,-0.2304,-0.23,-0.2242,-0.2244,-0.2037,-0.1943,-0.2252,-0.2253,-0.2254,-0.2255,0,-0.2072,-0.2112,-0.2112,-0.2128,-0.218,-0.2186,-0.2209,-0.2247,-0.2255,-0.2275,-0.2278,-0.2281,-0.227,-0.2249,-0.2249,-0.2272,-0.2193,-0.2212,-0.2123,-0.2119,-0.1982,-0.1968,-0.215,-0.215,-0.215,-0.215,-0.2151,0,-0.2019,-0.2014,-0.2076,-0.2073,-0.2066,-0.2128,-0.2123,-0.2153,-0.2188,-0.2183,-0.2237,-0.222,-0.2245,-0.222,-0.2215,-0.2138,-0.2153,-0.21,-0.208,-0.1975,-0.1962,-0.2201,-0.2208,-0.2147,-0.2148,-0.2148,-0.2149,0,-0.1924,-0.197,-0.1967,-0.2016,-0.2028,-0.2018,-0.2064,-0.2064,-0.2115,-0.2107,-0.2111,-0.2155,-0.2124,-0.2137,-0.2096,-0.2073,-0.2022,-0.1986,-0.1863,-0.1831,-0.1977,-0.1985,-0.1858,-0.1855,-0.1853,-0.185,-0.1848,0,-0.1872,-0.1864,-0.1903,-0.1899,-0.1916,-0.1925,-0.1932,-0.2002,-0.2009,-0.2054,-0.2035,-0.2033,-0.2004,-0.1937,-0.1897,-0.1838,-0.1925,-0.1677,-0.1691,-0.1948,-0.1942,-0.1955,-0.1966,-0.1502,-0.1497,-0.1494,-0.1491,0,-0.1762,-0.1783,-0.1785,-0.178,-0.1783,-0.1791,-0.181,-0.1809,-0.1884,-0.1891,-0.1884,-0.1869,-0.1822,-0.1706,-0.1652,-0.1607,-0.1683,-0.1598,-0.1864,-0.1612,-0.1608,-0.1605,-0.1628,-0.1458,-0.1461,-0.1464,-0.1465,-0.1467,-0.1669,-0.1644,-0.1654,-0.1641,-0.1652,-0.1643,-0.1604,-0.1644,-0.1637,-0.1623,-0.1688,-0.1628,-0.1623,-0.1467,-0.1386,-0.1333,-0.1454,-0.1401,-0.1414,-0.143,-0.1421,-0.1414,-0.1225,-0.1227,-0.1229,-0.123,-0.1231,0,-0.1539,-0.1529,-0.1514,-0.1493,-0.1462,-0.1513,-0.1508,-0.1459,-0.141,-0.1434,-0.1412,-0.1281,-0.12,-0.1207,-0.107,-0.104,-0.1042,-0.0999,-0.101,-0.1043,-0.1072,-0.1047,-0.075,-0.0749,-0.0747,-0.0746,0,0,-0.1465,-0.1408,-0.1406,-0.1311,-0.13,-0.1217,-0.119,-0.1147,-0.1139,-0.1074,-0.1054,-0.1135,-0.1177,-0.0972,-0.0915,-0.0811,-0.0918,-0.0767,-0.1153,-0.1199,-0.1226,-0.1303,-0.1301,0,0,0,0,0]},{"header":{"parameterUnit":"m.s-1","parameterCategory":2,"la1":30.2991,"la2":30.254,"lo1":-89.0895,"lo2":-89.0444,"dy":0.0017,"dx":0.0017,"nx":28,"ny":28,"refTime":"2023-09-09T03:00:00:Z","depth":"2","parameterNumber":3,"parameterNumberName":"V-component_of_CURRENTS"},"data":[0,0,0,0,0,0,0,0,0,0,0,0,0,0,0,0,0,0,0,0,0,0,0,0,0,0,0,0,0,0,0,0,0,0,0,0,0,0,0,0,0,0,0,0,0,0,0,0,0,0,0,0,0,0,0,0,0,0,-0.0308,-0.0306,0,-0.02,-0.0199,-0.0198,-0.0133,-0.0133,-0.0133,-0.0132,0.0021,0.0025,0.0029,0,0,0,0,0,0,0,0,0,0,0,0,0,-0.0366,-0.0366,-0.0308,-0.0306,-0.0305,-0.02,-0.0199,-0.0197,-0.0133,-0.0133,-0.0133,-0.0132,0.002,0.0024,0.0029,0,0,0,0,0,0,0,0,0,0,0,0,0,-0.0307,-0.0366,-0.0308,-0.0261,-0.0256,-0.0201,-0.0199,-0.0197,-0.0133,-0.0133,-0.0133,-0.0132,0.0018,0.0024,0.003,0.0059,0,0,0.0047,0.005,0,0,0,0,0,0,0,0,-0.0311,-0.0305,-0.0269,-0.0264,-0.0258,-0.018,-0.0163,-0.0109,-0.0133,-0.0179,-0.0132,-0.0132,-0.0043,-0.0032,-0.0012,0.0066,0.0073,0.0048,0.0052,0.0054,0.0056,0,0,0,0,0,0,0,-0.0315,-0.0309,-0.0264,-0.0268,-0.0261,-0.0214,-0.0206,-0.0152,-0.0113,-0.0175,-0.017,-0.016,-0.0039,-0.0018,-0.0008,0.0075,0.0048,0.0053,0.0057,0.0059,0.0181,0.018,0,0,0,0,0,0,-0.0335,-0.0313,-0.0268,-0.0261,-0.0285,-0.0214,-0.0205,-0.0205,-0.0114,-0.01,-0.016,-0.0157,-0.0028,-0.0015,-0.0002,0.0029,0.0054,0.0059,0.0063,0.0181,0.0181,0.018,0,0,0,0,0,0,-0.0337,-0.0333,-0.0272,-0.0285,-0.0274,-0.0214,-0.0214,-0.0203,-0.0183,-0.0103,-0.0089,-0.0152,-0.0027,-0.001,0.0038,0.0036,0.0062,0.0067,0.0181,0.0181,0.018,0.0097,0,0,0,0,0,0,-0.034,-0.0334,-0.0341,-0.0287,-0.0274,-0.0243,-0.0214,-0.0201,-0.0177,-0.0172,-0.0091,-0.0076,-0.0026,0.0029,0.0044,0.0044,0.0072,0.0182,0.0181,0.0181,0.01,0.0094,0.0088,0,0,0,0,0,-0.0342,-0.0352,-0.0343,-0.0337,-0.0286,-0.0244,-0.0233,-0.0188,-0.0177,-0.0169,-0.0121,-0.0079,0.0036,0.0033,0.0051,0.0053,0.0182,0.0181,0.0181,0.0102,0.0095,0.0088,0,0,0,0,0,0,-0.0383,-0.0344,-0.0333,-0.0332,-0.0295,-0.0233,-0.0222,-0.0195,-0.015,-0.0149,-0.0079,-0.006,-0.002,0.0027,0.0021,0.0086,0.0115,0.0118,0.0049,0.0043,0.0037,0.0026,0.0077,0,0,0,0,0,-0.0398,-0.0395,-0.0348,-0.0349,-0.0334,-0.0282,-0.0261,-0.0233,-0.0186,-0.0166,-0.011,-0.0055,-0.0008,0.0023,0.0074,0.0113,0.0154,0.0125,0.0119,0.0113,0.0116,0.0167,0.0166,0.0178,0.0178,0.0178,0,0,-0.0414,-0.0394,-0.0392,-0.0358,-0.0327,-0.0308,-0.0268,-0.0243,-0.0226,-0.0156,-0.0119,-0.0073,-0.0004,0.0035,0.0058,0.0075,0.0129,0.0112,0.0107,0.0113,0.0166,0.0165,0.0164,0.0178,0.0178,0.0178,0,0,-0.0443,-0.043,-0.0434,-0.0407,-0.0369,-0.0333,-0.0332,-0.0275,-0.0248,-0.021,-0.0161,-0.0119,-0.004,0.0006,0.004,0.0034,0.0093,0.0048,0.0017,0.0066,0.0065,0.0065,0.0101,0.0105,0.0049,0.0049,0.0049,0,-0.0466,-0.0465,-0.0427,-0.0422,-0.0405,-0.0351,-0.0348,-0.0311,-0.0247,-0.0226,-0.0209,-0.0106,-0.0053,-0.0002,-0.0008,0.0021,0.0054,0.0035,0.0057,0.0058,0.006,0.0097,0.0103,0.0045,0.0045,0.0046,0.0046,0,-0.0492,-0.049,-0.049,-0.0468,-0.0444,-0.0433,-0.0381,-0.0356,-0.0322,-0.0281,-0.0228,-0.0159,-0.0096,-0.0077,-0.0043,-0.0008,0.0013,0.0038,0.0071,0.0053,0.0094,0.0101,0.0039,0.004,0.0042,0.0043,0,0,-0.054,-0.0514,-0.0515,-0.0511,-0.0469,-0.0451,-0.0429,-0.0385,-0.0368,-0.0309,-0.0277,-0.0206,-0.0169,-0.0129,-0.0079,-0.0038,-0.0009,-0.0003,0.0001,0.0025,0.0089,0.0119,0.013,0.0018,0.0019,0.002,0.0108,0,-0.057,-0.058,-0.0552,-0.0553,-0.055,-0.05,-0.0481,-0.0438,-0.0389,-0.0345,-0.0274,-0.0224,-0.0187,-0.016,-0.0116,-0.0029,0.0008,-0.0036,0.0111,0.0115,0.0138,0.0139,0.0125,0.0204,0.0115,0.0117,0.0118,0,-0.0599,-0.0602,-0.0616,-0.0594,-0.0588,-0.058,-0.0541,-0.0515,-0.0443,-0.0406,-0.0347,-0.0282,-0.021,-0.0179,-0.0047,-0.0078,-0.0006,0.0057,0.0062,0.0128,0.0159,0.0212,0.0221,0.013,0.0129,0.0128,0.0128,0,-0.0647,-0.0641,-0.0657,-0.0651,-0.062,-0.0617,-0.0597,-0.0539,-0.0514,-0.0443,-0.0414,-0.0317,-0.0261,-0.0161,-0.0031,-0.0038,0.0114,0.0126,0.022,0.0223,0.0261,0.0265,0.0213,0.0213,0.0213,0.0213,0.0213,0,-0.0683,-0.0692,-0.0684,-0.0692,-0.0704,-0.0668,-0.0662,-0.0626,-0.0573,-0.054,-0.0452,-0.0397,-0.0253,-0.0144,-0.0039,0.0117,0.0113,0.022,0.0253,0.023,0.023,0.021,0.0208,0.0216,0.0215,0.0215,0.0214,0,-0.0723,-0.072,-0.0736,-0.0728,-0.0727,-0.0738,-0.0713,-0.0703,-0.0649,-0.0603,-0.0582,-0.0449,-0.0302,-0.0156,0.0022,0.0115,0.0254,0.0307,0.0264,0.0291,0.0328,0.0321,0.0419,0.0421,0.0423,0.0424,0.0425,0,-0.074,-0.0756,-0.0771,-0.0787,-0.0785,-0.0793,-0.0794,-0.075,-0.0728,-0.0625,-0.06,-0.0454,-0.0332,-0.0066,0.0121,0.0313,0.0305,0.0407,0.0396,0.033,0.0352,0.0342,0.0334,0.0407,0.0408,0.0409,0.0409,0,-0.077,-0.078,-0.0797,-0.0832,-0.0849,-0.0859,-0.0852,-0.0842,-0.0775,-0.072,-0.0606,-0.0503,-0.0245,-0.0015,0.0227,0.0333,0.0374,0.0428,0.0389,0.0354,0.0325,0.0344,0.0335,0.0416,0.0415,0.0415,0.0414,0.0414,-0.0787,-0.0812,-0.0838,-0.0868,-0.0894,-0.0906,-0.0899,-0.0869,-0.0823,-0.0708,-0.0611,-0.0434,-0.0223,0.0136,0.0307,0.046,0.0454,0.0496,0.0491,0.0486,0.0466,0.0441,0.055,0.055,0.055,0.055,0.055,0,-0.0797,-0.0828,-0.0864,-0.0899,-0.0927,-0.0932,-0.0916,-0.0882,-0.0812,-0.0696,-0.0565,-0.0319,-0.0066,0.0138,0.0398,0.055,0.0523,0.0562,0.0505,0.0499,0.0493,0.047,0.0556,0.0557,0.0557,0.0557,0,0,-0.0803,-0.0841,-0.0861,-0.0911,-0.0935,-0.0938,-0.0922,-0.0858,-0.0764,-0.0627,-0.0492,-0.0311,-0.0056,0.0129,0.0318,0.045,0.0427,0.0451,0.0433,0.0338,0.033,0.0446,0.0404,0,0,0,0,0]}],[{"header":{"parameterUnit":"m.s-1","parameterCategory":2,"la1":30.2991,"la2":30.254,"lo1":-89.0895,"lo2":-89.0444,"dy":0.0017,"dx":0.0017,"nx":28,"ny":28,"refTime":"2023-09-09T03:00:00:Z","depth":"4","parameterNumber":2,"parameterNumberName":"U-component_of_CURRENTS"},"data":[0,0,0,0,0,0,0,0,0,0,0,0,0,0,0,0,0,0,0,0,0,0,0,0,0,0,0,0,0,0,0,0,0,0,0,0,0,0,0,0,0,0,0,0,0,0,0,0,0,0,0,0,0,0,0,0,0,0,-0.1435,-0.1436,0,-0.1432,-0.1432,-0.1431,-0.1431,-0.1432,-0.1432,-0.1433,-0.1476,-0.1477,-0.1477,0,0,0,0,0,0,0,0,0,0,0,0,0,-0.139,-0.1391,-0.1435,-0.1436,-0.1436,-0.1432,-0.1432,-0.1431,-0.1431,-0.1432,-0.1432,-0.1433,-0.1475,-0.1476,-0.1477,0,0,0,0,0,0,0,0,0,0,0,0,0,-0.1397,-0.1391,-0.1435,-0.1438,-0.1439,-0.1432,-0.1432,-0.1431,-0.1431,-0.1432,-0.1432,-0.1433,-0.1475,-0.1476,-0.1478,-0.1474,0,0,-0.1481,-0.1482,0,0,0,0,0,0,0,0,-0.1397,-0.1399,-0.1437,-0.1438,-0.1439,-0.1436,-0.1432,-0.1449,-0.1431,-0.143,-0.1433,-0.1433,-0.1469,-0.147,-0.1463,-0.1476,-0.1478,-0.1481,-0.1482,-0.1483,-0.1483,0,0,0,0,0,0,0,-0.1397,-0.1399,-0.143,-0.1438,-0.1438,-0.1422,-0.1424,-0.1434,-0.1444,-0.143,-0.1431,-0.1436,-0.1469,-0.1462,-0.1464,-0.1478,-0.1481,-0.1482,-0.1483,-0.1484,-0.1566,-0.1568,0,0,0,0,0,0,-0.1407,-0.1398,-0.1431,-0.1431,-0.1423,-0.1423,-0.1425,-0.1433,-0.1443,-0.1446,-0.1436,-0.1436,-0.1459,-0.1463,-0.1466,-0.1529,-0.1483,-0.1484,-0.1484,-0.1565,-0.1567,-0.1568,0,0,0,0,0,0,-0.1406,-0.1409,-0.1431,-0.1417,-0.1419,-0.1424,-0.1433,-0.1433,-0.1452,-0.1448,-0.1451,-0.1458,-0.146,-0.1464,-0.1506,-0.1528,-0.1484,-0.1485,-0.1563,-0.1565,-0.1567,-0.1612,0,0,0,0,0,0,-0.1404,-0.1409,-0.1427,-0.1418,-0.142,-0.1442,-0.1433,-0.1433,-0.1454,-0.1455,-0.1468,-0.147,-0.1461,-0.1504,-0.1507,-0.1529,-0.1486,-0.1561,-0.1564,-0.1567,-0.1609,-0.1616,-0.1621,0,0,0,0,0,-0.1403,-0.1413,-0.1427,-0.1432,-0.1442,-0.1443,-0.1442,-0.1444,-0.1455,-0.1463,-0.1484,-0.1471,-0.1523,-0.1507,-0.151,-0.1532,-0.156,-0.1563,-0.1567,-0.1606,-0.1614,-0.1621,0,0,0,0,0,0,-0.14,-0.1415,-0.143,-0.1446,-0.1456,-0.1444,-0.1455,-0.1462,-0.1481,-0.1496,-0.1492,-0.1497,-0.1538,-0.1535,-0.1517,-0.1565,-0.1539,-0.1543,-0.1568,-0.1575,-0.1582,-0.1587,-0.1487,0,0,0,0,0,-0.1411,-0.1426,-0.1437,-0.1453,-0.1463,-0.1468,-0.1474,-0.148,-0.1493,-0.1502,-0.1514,-0.1532,-0.1548,-0.1564,-0.1573,-0.1606,-0.1587,-0.1622,-0.1629,-0.1634,-0.1642,-0.1645,-0.1652,-0.1579,-0.1579,-0.1579,0,0,-0.1416,-0.1426,-0.1436,-0.1454,-0.1463,-0.1481,-0.1472,-0.1492,-0.1516,-0.1506,-0.155,-0.1556,-0.1562,-0.1593,-0.1612,-0.1599,-0.1642,-0.1638,-0.1643,-0.1648,-0.1649,-0.1656,-0.1662,-0.1581,-0.1581,-0.1581,0,0,-0.1426,-0.1445,-0.1464,-0.1475,-0.15,-0.1503,-0.1519,-0.1532,-0.1551,-0.1592,-0.159,-0.1617,-0.1646,-0.1648,-0.1654,-0.1705,-0.1673,-0.1711,-0.1749,-0.1752,-0.1758,-0.1763,-0.1728,-0.1729,-0.1716,-0.1716,-0.1716,0,-0.1438,-0.1461,-0.1468,-0.1489,-0.1506,-0.1521,-0.1548,-0.1563,-0.1592,-0.1614,-0.1619,-0.1664,-0.1669,-0.17,-0.1718,-0.1718,-0.1704,-0.1717,-0.1759,-0.1764,-0.1768,-0.1731,-0.1732,-0.1718,-0.1718,-0.1718,-0.1718,0,-0.1456,-0.1486,-0.1496,-0.1532,-0.1549,-0.1572,-0.1599,-0.1628,-0.1659,-0.1674,-0.1724,-0.1731,-0.1754,-0.1761,-0.1759,-0.1793,-0.1767,-0.1763,-0.1736,-0.1777,-0.1736,-0.1736,-0.1722,-0.1721,-0.172,-0.172,0,0,-0.1453,-0.1504,-0.1511,-0.1534,-0.1577,-0.1585,-0.1639,-0.1679,-0.1709,-0.1749,-0.1784,-0.1821,-0.1824,-0.1831,-0.1827,-0.1838,-0.1848,-0.1822,-0.1821,-0.1779,-0.1831,-0.1711,-0.1699,-0.1855,-0.1856,-0.1856,-0.1782,0,-0.1473,-0.1514,-0.1542,-0.1586,-0.1606,-0.1643,-0.1682,-0.1721,-0.1757,-0.179,-0.1817,-0.1844,-0.185,-0.1859,-0.1876,-0.1853,-0.1855,-0.1867,-0.1804,-0.1802,-0.1684,-0.1698,-0.1859,-0.1782,-0.1782,-0.1782,-0.1782,0,-0.1475,-0.1505,-0.1555,-0.1607,-0.1623,-0.1656,-0.1712,-0.1749,-0.1801,-0.183,-0.1869,-0.188,-0.1905,-0.1902,-0.1895,-0.1904,-0.1879,-0.186,-0.1857,-0.1731,-0.1683,-0.1738,-0.1782,-0.1782,-0.1782,-0.1782,-0.1782,0,-0.1435,-0.1506,-0.1547,-0.1566,-0.1631,-0.1669,-0.1707,-0.1763,-0.1789,-0.1849,-0.1863,-0.1903,-0.1904,-0.1907,-0.188,-0.1891,-0.1854,-0.1853,-0.1718,-0.1708,-0.1818,-0.1814,-0.1851,-0.1851,-0.1852,-0.1852,-0.1852,0,-0.1412,-0.1442,-0.1535,-0.1547,-0.1591,-0.1651,-0.1694,-0.1738,-0.1794,-0.1804,-0.1874,-0.1868,-0.1911,-0.1895,-0.1879,-0.1784,-0.1849,-0.1719,-0.1686,-0.1835,-0.1835,-0.1816,-0.1813,-0.1849,-0.185,-0.185,-0.1851,0,-0.1334,-0.1403,-0.1444,-0.1536,-0.1565,-0.1589,-0.1665,-0.1685,-0.1756,-0.1768,-0.1786,-0.1834,-0.1807,-0.1822,-0.18,-0.1748,-0.1693,-0.1647,-0.1781,-0.1758,-0.1542,-0.1543,-0.1477,-0.1472,-0.1468,-0.1465,-0.1462,0,-0.129,-0.131,-0.1411,-0.1435,-0.1478,-0.153,-0.1558,-0.1646,-0.1661,-0.172,-0.1707,-0.1718,-0.1732,-0.1592,-0.1635,-0.158,-0.1573,-0.1528,-0.1565,-0.1532,-0.1507,-0.1514,-0.1519,-0.1456,-0.1455,-0.1453,-0.1452,0,-0.1201,-0.1255,-0.1289,-0.1339,-0.1382,-0.1414,-0.1465,-0.1461,-0.1543,-0.1623,-0.1575,-0.1553,-0.1513,-0.1495,-0.1461,-0.1432,-0.1552,-0.1486,-0.1495,-0.1529,-0.1505,-0.1486,-0.1496,-0.1439,-0.1441,-0.1442,-0.1443,0,-0.1134,-0.1135,-0.1194,-0.1223,-0.1276,-0.128,-0.1321,-0.1333,-0.1356,-0.1439,-0.141,-0.1432,-0.1482,-0.1414,-0.1384,-0.1345,-0.1331,-0.1295,-0.1313,-0.1329,-0.1319,-0.1269,-0.1094,0,0,0,0,0,-0.1058,-0.1048,-0.1071,-0.1097,-0.1148,-0.1176,-0.1249,-0.1297,-0.1376,-0.1302,-0.1356,-0.1316,-0.1266,-0.1282,-0.1209,-0.1318,-0.134,-0.1228,-0.131,-0.1361,-0.1377,-0.1382,0,0,0,0,0,0,-0.1005,-0.1021,-0.1028,-0.0989,-0.0985,-0.102,-0.1062,-0.1122,-0.1094,-0.1182,-0.1162,-0.1228,-0.1202,-0.1278,-0.1176,-0.1181,-0.1204,-0.1255,-0.1251,-0.1352,-0.1367,-0.138,-0.139,0,0,0,0,0]},{"header":{"parameterUnit":"m.s-1","parameterCategory":2,"la1":30.2991,"la2":30.254,"lo1":-89.0895,"lo2":-89.0444,"dy":0.0017,"dx":0.0017,"nx":28,"ny":28,"refTime":"2023-09-09T03:00:00:Z","depth":"4","parameterNumber":3,"parameterNumberName":"V-component_of_CURRENTS"},"data":[0,0,0,0,0,0,0,0,0,0,0,0,0,0,0,0,0,0,0,0,0,0,0,0,0,0,0,0,0,0,0,0,0,0,0,0,0,0,0,0,0,0,0,0,0,0,0,0,0,0,0,0,0,0,0,0,0,0,-0.0188,-0.0187,0,-0.0146,-0.0146,-0.0145,-0.0122,-0.0121,-0.0121,-0.0121,-0.0042,-0.004,-0.0038,0,0,0,0,0,0,0,0,0,0,0,0,0,-0.0202,-0.0202,-0.0188,-0.0187,-0.0187,-0.0146,-0.0146,-0.0145,-0.0122,-0.0121,-0.0121,-0.0121,-0.0043,-0.0041,-0.0038,0,0,0,0,0,0,0,0,0,0,0,0,0,-0.0182,-0.0202,-0.0188,-0.017,-0.0168,-0.0147,-0.0146,-0.0145,-0.0122,-0.0121,-0.0121,-0.0121,-0.0044,-0.0041,-0.0038,-0.0023,0,0,-0.0029,-0.0027,0,0,0,0,0,0,0,0,-0.0183,-0.0182,-0.0173,-0.0171,-0.0169,-0.0139,-0.0122,-0.0102,-0.0122,-0.0139,-0.0121,-0.0121,-0.0071,-0.0066,-0.0059,-0.0019,-0.0016,-0.0028,-0.0027,-0.0025,-0.0025,0,0,0,0,0,0,0,-0.0185,-0.0183,-0.0172,-0.0172,-0.017,-0.0148,-0.0146,-0.0118,-0.0106,-0.0138,-0.0136,-0.0131,-0.0069,-0.0062,-0.0057,-0.0015,-0.0029,-0.0026,-0.0024,-0.0023,0.0052,0.0053,0,0,0,0,0,0,-0.0192,-0.0185,-0.0173,-0.0171,-0.0175,-0.0148,-0.0146,-0.0149,-0.0107,-0.0101,-0.0131,-0.013,-0.0067,-0.0061,-0.0054,-0.0022,-0.0025,-0.0023,-0.0021,0.0052,0.0052,0.0053,0,0,0,0,0,0,-0.0193,-0.0192,-0.0175,-0.0176,-0.0172,-0.0149,-0.0152,-0.0148,-0.0142,-0.0103,-0.0096,-0.013,-0.0067,-0.0058,-0.003,-0.0019,-0.0021,-0.0019,0.0052,0.0052,0.0053,0.0036,0,0,0,0,0,0,-0.0193,-0.0192,-0.0199,-0.0177,-0.0172,-0.0164,-0.0152,-0.0147,-0.0139,-0.0137,-0.0099,-0.0092,-0.0066,-0.0035,-0.0027,-0.0015,-0.0016,0.0052,0.0052,0.0052,0.0036,0.0035,0.0035,0,0,0,0,0,-0.0194,-0.0204,-0.02,-0.0199,-0.0182,-0.0164,-0.016,-0.0142,-0.014,-0.0137,-0.0111,-0.0093,-0.0027,-0.0032,-0.0023,-0.001,0.0052,0.0052,0.0052,0.0036,0.0035,0.0035,0,0,0,0,0,0,-0.0215,-0.0201,-0.0197,-0.0203,-0.0186,-0.016,-0.0158,-0.0147,-0.0126,-0.0126,-0.009,-0.008,-0.0052,-0.0031,-0.0038,0.0012,0.0016,0.0018,0.0,-0.0,-0.0001,-0.0004,-0.0014,0,0,0,0,0,-0.0223,-0.0228,-0.0207,-0.0213,-0.0206,-0.0184,-0.0176,-0.0165,-0.0142,-0.0134,-0.0104,-0.0073,-0.0043,-0.0023,0.0003,0.0032,0.0054,0.0046,0.0046,0.0045,0.0048,0.0091,0.0095,0.0054,0.0054,0.0054,0,0,-0.0233,-0.0227,-0.023,-0.0218,-0.0205,-0.0195,-0.0179,-0.0171,-0.0159,-0.0127,-0.0103,-0.0077,-0.0038,-0.0007,0.0009,0.0014,0.0066,0.0046,0.0045,0.0049,0.0092,0.0096,0.01,0.0055,0.0055,0.0054,0,0,-0.0252,-0.0251,-0.0258,-0.0244,-0.0228,-0.021,-0.021,-0.0183,-0.0169,-0.0145,-0.0117,-0.0081,-0.0042,-0.0002,0.002,0.0034,0.0057,0.0036,0.0039,0.008,0.0084,0.0088,0.0111,0.0116,0.0041,0.0041,0.0041,0,-0.0267,-0.0272,-0.0256,-0.0254,-0.0246,-0.0219,-0.0218,-0.0195,-0.0162,-0.0147,-0.0141,-0.007,-0.0034,0.0016,0.0022,0.0035,0.005,0.0038,0.008,0.0084,0.0088,0.0111,0.0118,0.0041,0.0041,0.0041,0.0041,0,-0.0284,-0.0287,-0.0289,-0.0278,-0.0265,-0.0262,-0.0228,-0.0211,-0.0192,-0.0164,-0.012,-0.0071,-0.0027,-0.0007,0.0014,0.0062,0.0059,0.007,0.0081,0.0091,0.0114,0.0122,0.004,0.004,0.004,0.004,0,0,-0.0321,-0.0306,-0.0309,-0.0308,-0.0281,-0.0273,-0.0249,-0.0218,-0.0203,-0.0158,-0.0132,-0.0064,-0.0039,-0.0011,0.0025,0.007,0.0114,0.0079,0.0082,0.01,0.0189,0.0174,0.0181,0.0127,0.0129,0.013,0.0189,0,-0.0342,-0.0352,-0.0333,-0.0334,-0.0334,-0.0299,-0.028,-0.0246,-0.0211,-0.0176,-0.0112,-0.0075,-0.0039,-0.0022,0.0031,0.009,0.0134,0.0096,0.0178,0.018,0.0165,0.019,0.0134,0.0195,0.0197,0.0198,0.0199,0,-0.0362,-0.0368,-0.0381,-0.0366,-0.0363,-0.0358,-0.0328,-0.0305,-0.0243,-0.0216,-0.016,-0.0113,-0.0036,-0.0015,0.0103,0.0072,0.0128,0.0177,0.0181,0.018,0.018,0.0186,0.0212,0.0211,0.021,0.0209,0.0208,0,-0.0397,-0.0397,-0.0413,-0.0409,-0.0387,-0.0387,-0.0375,-0.0324,-0.0305,-0.0244,-0.0224,-0.013,-0.0088,0.0002,0.0106,0.0102,0.0227,0.0234,0.0277,0.0276,0.0277,0.0273,0.0319,0.0319,0.0318,0.0318,0.0318,0,-0.042,-0.0431,-0.0438,-0.0444,-0.0461,-0.0432,-0.0431,-0.0401,-0.0358,-0.0331,-0.0253,-0.0209,-0.0082,0.0007,0.0097,0.0207,0.0222,0.0284,0.0297,0.0266,0.026,0.0282,0.0277,0.0321,0.032,0.032,0.0319,0,-0.0441,-0.0448,-0.0467,-0.0472,-0.0477,-0.049,-0.0479,-0.0471,-0.0429,-0.0393,-0.0376,-0.0265,-0.015,-0.0025,0.0124,0.019,0.0299,0.0333,0.0281,0.0289,0.032,0.0313,0.0386,0.0386,0.0386,0.0386,0.0386,0,-0.0448,-0.0464,-0.0497,-0.0518,-0.0524,-0.0539,-0.0545,-0.0514,-0.0496,-0.0419,-0.0399,-0.0289,-0.0203,-0.0003,0.0121,0.0286,0.0311,0.0356,0.0355,0.0324,0.033,0.0323,0.0316,0.0386,0.0386,0.0386,0.0386,0,-0.0459,-0.0481,-0.0501,-0.0549,-0.0575,-0.059,-0.0593,-0.0583,-0.0532,-0.0503,-0.04,-0.0286,-0.0157,-0.0001,0.0123,0.0244,0.0321,0.0358,0.0358,0.0358,0.0326,0.033,0.0323,0.0387,0.0387,0.0387,0.0387,0,-0.0469,-0.0493,-0.0531,-0.0566,-0.0607,-0.0622,-0.0619,-0.0582,-0.0556,-0.0464,-0.0432,-0.0285,-0.0196,-0.0022,0.0095,0.0207,0.0237,0.0269,0.0275,0.0276,0.0227,0.0169,0.0201,0,0,0,0,0,-0.0472,-0.05,-0.0539,-0.0581,-0.0623,-0.0638,-0.0637,-0.0622,-0.0578,-0.0508,-0.0464,-0.0338,-0.0145,-0.0058,0.0054,0.0086,0.0242,0.0217,0.0278,0.0389,0.0389,0.0348,0,0,0,0,0,0,-0.0476,-0.0518,-0.0538,-0.0585,-0.0612,-0.0646,-0.0645,-0.0616,-0.056,-0.0502,-0.0395,-0.0327,-0.0139,-0.0212,0.0049,0.0084,0.0134,0.0311,0.0313,0.039,0.0389,0.0389,0.0347,0,0,0,0,0]}]]